This is the latest recevied weather packets stored in our database for station/object W0WFX-2. If no packets are shown the sender has not sent any weather packets the latest 10 day(s).
| Time | Temp. | Humidity | Pressure | Rain* | Wind** | Luminosity | Snow |
|---|---|---|---|---|---|---|---|
| 1788461583 | 36.67° C | 38% | 1012.7 hPa | 0 mm | - | 732 W/m² | - |
| 1788461279 | 36.11° C | 38% | 1012.5 hPa | 0 mm | - | 732 W/m² | - |
| 1788460975 | 36.67° C | 38% | 1012.7 hPa | 0 mm | - | 735 W/m² | - |
| 1788460670 | 36.67° C | 39% | 1012.6 hPa | 0 mm | - | 737 W/m² | - |
| 1788460364 | 36.67° C | 40% | 1012.8 hPa | 0 mm | - | 741 W/m² | - |
| 1788460063 | 36.67° C | 39% | 1012.7 hPa | 0 mm | - | 742 W/m² | - |
| 1788459758 | 36.67° C | 40% | 1012.9 hPa | 0 mm | - | 743 W/m² | - |
| 1788459457 | 36.11° C | 40% | 1012.9 hPa | 0 mm | - | 742 W/m² | - |
| 1788459152 | 36.11° C | 40% | 1012.8 hPa | 0 mm | - | 746 W/m² | - |
| 1788458848 | 36.11° C | 41% | 1013 hPa | 0 mm | - | 743 W/m² | - |
| 1788458547 | 36.11° C | 40% | 1013.2 hPa | 0 mm | - | 743 W/m² | - |
| 1788458247 | 36.11° C | 40% | 1013.2 hPa | 0 mm | - | 741 W/m² | - |
| 1788457946 | 36.11° C | 42% | 1013.2 hPa | 0 mm | - | 738 W/m² | - |
| 1788457645 | 36.11° C | 42% | 1013.4 hPa | 0 mm | - | 737 W/m² | - |
| 1788457341 | 36.11° C | 42% | 1013.5 hPa | 0 mm | - | 733 W/m² | - |
| 1788457036 | 36.11° C | 42% | 1013.4 hPa | 0 mm | - | 728 W/m² | - |
| 1788456732 | 36.11° C | 43% | 1013.6 hPa | 0 mm | - | 725 W/m² | - |
| 1788456432 | 36.11° C | 43% | 1013.6 hPa | 0 mm | - | 721 W/m² | - |
| 1788456127 | 35.56° C | 43% | 1013.6 hPa | 0 mm | - | 716 W/m² | - |
| 1788455822 | 35.56° C | 42% | 1013.7 hPa | 0 mm | - | 712 W/m² | - |
| 1788455518 | 35.56° C | 42% | 1013.8 hPa | 0 mm | - | 707 W/m² | - |
| 1788455216 | 35.56° C | 43% | 1013.8 hPa | 0 mm | - | 701 W/m² | - |
| 1788454940 | 36.67° C | 42% | 1013.8 hPa | 0 mm | - | 695 W/m² | - |
| 1788454610 | 35.56° C | 43% | 1013.8 hPa | 0 mm | - | 689 W/m² | - |
| 1788454305 | 35.56° C | 43% | 1013.8 hPa | 0 mm | - | 683 W/m² | - |
* Rain latest hour (hover to see other rain measurements)
** Current wind speed in m/s (hover to see current wind gust speed)